This demonstration page uses our WeatherBlox Daily Observations layout. Learn more.

Left ArrowRight Arrow

34.74481, -87.66753

Hourly Observations for December 2, 2019

Temp ( °F °C ) Dew Point ( °F °C ) Humidity (%) Winds ( mph kmh ) Pressure ( in mb ) Visibility ( mi km ) Precip ( " mm )
12:53 am 00:53 Cloudy 42 5.6 27 -2.8 55 55 NW 17 28 29.93 1014 10 16 0.00 0.00
1:53 am 01:53 Cloudy 41 5 25 -3.9 53 53 NW 14 22 29.93 1014 10 16 0.00 0.00
2:53 am 02:53 Cloudy 41 5 26 -3.3 55 55 NW 16 26 29.95 1014 10 16 0.00 0.00
3:53 am 03:53 Cloudy 41 5 26 -3.3 55 55 NW 15 24 29.97 1015 10 16 0.00 0.00
4:53 am 04:53 Cloudy 41 5 26 -3.3 55 55 NNW 18 30 29.99 1016 10 16 0.00 0.00
5:53 am 05:53 Cloudy 40 4.4 26 -3.3 58 58 NNW 9 15 30.02 1017 10 16 0.00 0.00
6:53 am 06:53 Cloudy 40 4.4 27 -2.8 60 60 NNW 12 19 30.05 1018 10 16 0.00 0.00
7:53 am 07:53 Cloudy 40 4.4 28 -2.2 63 63 NW 12 19 30.07 1018 10 16 0.00 0.00
8:53 am 08:53 Cloudy 40 4.4 27 -2.8 60 60 NW 12 19 30.10 1019 10 16 0.00 0.00
9:53 am 09:53 Cloudy 40 4.4 27 -2.8 60 60 NW 12 19 30.14 1021 10 16 0.00 0.00
10:53 am 10:53 Cloudy 40 4.4 27 -2.8 60 60 NW 12 19 30.15 1021 10 16 0.00 0.00
11:53 am 11:53 Cloudy 41 5 26 -3.3 55 55 NNW 8 13 30.14 1021 10 16 0.00 0.00
12:53 pm 12:53 Cloudy 41 5 27 -2.8 57 57 NNW 13 20 30.14 1021 10 16 0.00 0.00
1:53 pm 13:53 Cloudy 41 5 27 -2.8 57 57 NW 12 19 30.12 1020 10 16 0.00 0.00
2:53 pm 14:53 Cloudy 41 5 26 -3.3 55 55 NNW 8 13 30.12 1020 10 16 0.00 0.00
3:53 pm 15:53 Cloudy 41 5 26 -3.3 55 55 NNW 9 15 30.13 1020 10 16 0.00 0.00
4:53 pm 16:53 Cloudy 40 4.4 26 -3.3 58 58 NNW 7 11 30.14 1021 10 16 0.00 0.00
5:53 pm 17:53 Cloudy 40 4.4 26 -3.3 58 58 NNW 8 13 30.14 1021 10 16 0.00 0.00
6:53 pm 18:53 Cloudy 40 4.4 27 -2.8 60 60 NNW 7 11 30.15 1021 10 16 0.00 0.00
7:53 pm 19:53 Cloudy 39 3.9 27 -2.8 62 62 NW 9 15 30.15 1021 10 16 0.00 0.00
8:53 pm 20:53 Cloudy 39 3.9 27 -2.8 62 62 NW 9 15 30.15 1021 10 16 0.00 0.00
9:53 pm 21:53 Cloudy 39 3.9 27 -2.8 62 62 NNW 7 11 30.14 1021 10 16 0.00 0.00
10:15 pm 22:15 Cloudy 39 3.9 27 -2.8 62 62 NNW 7 11 30.15 1021 10 16 0.00 0.00
10:53 pm 22:53 Cloudy 38 3.3 27 -2.8 65 65 N 7 11 30.13 1020 10 16 0.00 0.00
11:53 pm 23:53 Cloudy 38 3.3 27 -2.8 65 65 VRB 6 9 30.10 1019 10 16 0.00 0.00

Powered by AerisWeather